GW2742 Weather Reports


Display with metric or nautical units.
time (UTC)temp
F
wind
direction
speed
MPH
gust
MPH
rain 1hr
in
rain 24hr
in
rain mn
in
humidity
%
barometer
mb
20260505102022 38 96 1.0 4.0 0.00 0.00 0.00 56 1015.0
20260505101544 39 0 0.0 4.0 0.00 0.00 0.00 55 1015.1
20260505101022 40 0 0.0 4.0 0.00 0.00 0.00 54 1015.0
20260505100524 40 0 0.0 7.0 0.00 0.00 0.00 54 1015.0
20260505100048 40 0 1.0 7.0 0.00 0.00 0.00 53 1014.9
20260505095526 41 321 3.0 7.0 0.00 0.00 0.00 53 1015.0
20260505095025 41 326 3.0 6.0 0.00 0.00 0.00 53 1015.0
20260505094542 41 293 3.0 7.0 0.00 0.00 0.00 52 1015.0
20260505094023 41 326 3.0 7.0 0.00 0.00 0.00 52 1015.0
20260505093523 41 332 3.0 5.0 0.00 0.00 0.00 53 1015.0
20260505093038 41 303 1.0 3.0 0.00 0.00 0.00 54 1015.1
20260505092523 42 323 1.0 3.0 0.00 0.00 0.00 53 1015.0
20260505092022 42 323 1.0 3.0 0.00 0.00 0.00 53 1015.0
20260505091549 42 0 1.0 5.0 0.00 0.00 0.00 52 1015.0
20260505091025 43 332 2.0 6.0 0.00 0.00 0.00 51 1015.0
20260505090522 43 339 2.0 6.0 0.00 0.00 0.00 51 1015.0
20260505090055 43 307 2.0 5.0 0.00 0.00 0.00 50 1014.9
20260505085522 43 305 2.0 5.0 0.00 0.00 0.00 50 1015.0
20260505085026 44 311 2.0 5.0 0.00 0.00 0.00 50 1014.9
20260505084538 44 327 2.0 5.0 0.00 0.00 0.00 50 1014.9
20260505084024 44 337 2.0 5.0 0.00 0.00 0.00 50 1015.0
20260505083525 44 340 3.0 6.0 0.00 0.00 0.00 49 1015.1
20260505083047 44 314 2.0 8.0 0.00 0.00 0.00 49 1015.1
20260505082527 45 323 2.0 8.0 0.00 0.00 0.00 49 1015.1
20260505082023 45 304 3.0 8.0 0.00 0.00 0.00 49 1015.0
20260505081543 44 327 2.0 6.0 0.00 0.00 0.00 50 1015.0
20260505081022 44 357 2.0 6.0 0.00 0.00 0.00 51 1015.1
20260505080526 45 311 1.0 10.0 0.00 0.00 0.00 52 1015.1
20260505080045 45 352 2.0 10.0 0.00 0.00 0.00 50 1015.2
20260505075522 45 49 3.0 10.0 0.00 0.00 0.00 50 1015.2
20260505075024 44 0 1.0 5.0 0.00 0.00 0.00 51 1015.2
20260505074539 45 351 2.0 5.0 0.00 0.00 0.00 51 1015.2
20260505074025 45 342 3.0 5.0 0.00 0.00 0.00 51 1015.2
20260505073524 45 4 1.0 5.0 0.00 0.00 0.00 51 1015.1
20260505073045 45 1 2.0 6.0 0.00 0.00 0.00 50 1015.2
20260505072526 45 28 3.0 6.0 0.00 0.00 0.00 49 1015.2
20260505072027 45 341 2.0 7.0 0.00 0.00 0.00 50 1015.0
20260505071543 45 352 4.0 7.0 0.00 0.00 0.00 51 1015.2
20260505071026 45 32 4.0 7.0 0.00 0.00 0.00 53 1015.2
20260505070523 45 13 2.0 7.0 0.00 0.00 0.00 56 1015.1
20260505070038 45 349 4.0 7.0 0.00 0.00 0.00 56 1015.0
20260505065523 45 344 3.0 6.0 0.00 0.00 0.00 56 1015.0
20260505065022 45 17 3.0 6.0 0.00 0.00 0.00 56 1015.1
20260505064536 45 340 2.0 6.0 0.00 0.00 0.00 57 1015.1
20260505064022 45 338 3.0 6.0 0.00 0.00 0.00 57 1015.0
20260505063522 45 359 2.0 7.0 0.00 0.00 0.00 56 1015.2
20260505063046 45 78 3.0 9.0 0.00 0.00 0.00 56 1015.1
20260505062522 45 12 3.0 9.0 0.00 0.00 0.00 56 1015.1
20260505062030 45 30 2.0 9.0 0.00 0.00 0.00 57 1015.2
20260505061539 45 60 4.0 9.0 0.00 0.00 0.00 57 1015.1
20260505061026 45 42 3.0 13.0 0.00 0.00 0.00 58 1015.1
20260505060527 45 30 3.0 13.0 0.00 0.00 0.00 58 1015.1
20260505060039 45 20 5.0 11.0 0.00 0.00 0.00 58 1015.0
20260505055528 45 22 5.0 13.0 0.00 0.00 0.00 58 1015.0
20260505055027 45 355 6.0 16.0 0.00 0.00 0.00 58 1015.0
20260505054558 45 2 7.0 16.0 0.00 0.00 0.00 58 1014.9
20260505054028 46 13 4.0 9.0 0.00 0.00 0.00 57 1014.9
20260505053528 47 356 4.0 10.0 0.00 0.00 0.00 54 1014.8
20260505053048 47 32 4.0 10.0 0.00 0.00 0.00 52 1014.6
20260505052527 48 321 6.0 10.0 0.00 0.00 0.00 51 1014.5
20260505052028 48 354 6.0 11.0 0.00 0.00 0.00 51 1014.5
20260505051542 48 356 5.0 11.0 0.00 0.00 0.00 51 1014.4
20260505051027 48 356 4.0 9.0 0.00 0.00 0.00 51 1014.3
20260505050528 48 319 4.0 9.0 0.00 0.00 0.00 51 1014.5
20260505041548 49 330 6.0 12.0 0.00 0.00 0.00 49 1014.2
20260505041026 49 325 6.0 11.0 0.00 0.00 0.00 49 1014.0
20260505040527 49 347 6.0 11.0 0.00 0.00 0.00 50 1014.0
20260505040042 49 333 4.0 7.0 0.00 0.00 0.00 50 1014.0
20260505035526 49 347 4.0 7.0 0.00 0.00 0.00 50 1014.0
20260505035026 49 13 3.0 7.0 0.00 0.00 0.00 50 1014.0
20260505034537 49 313 3.0 7.0 0.00 0.00 0.00 49 1014.0
20260505034027 49 336 2.0 7.0 0.00 0.00 0.00 49 1013.9
20260505033527 49 333 2.0 7.0 0.00 0.00 0.00 48 1013.8
20260505033037 49 274 2.0 7.0 0.00 0.00 0.00 49 1013.8
20260505032527 49 335 2.0 7.0 0.00 0.00 0.00 48 1013.8
20260505032026 49 307 3.0 9.0 0.00 0.00 0.00 48 1013.7
20260505031541 49 333 5.0 9.0 0.00 0.00 0.00 48 1013.6
20260505031028 49 1 3.0 12.0 0.00 0.00 0.00 48 1013.6
20260505030527 49 336 3.0 12.0 0.00 0.00 0.00 48 1013.5
20260505030053 49 353 4.0 9.0 0.00 0.00 0.00 48 1013.3
20260505025528 49 311 4.0 9.0 0.00 0.00 0.00 48 1013.4
20260505025026 49 330 3.0 9.0 0.00 0.00 0.00 48 1013.4
20260505024537 49 327 5.0 10.0 0.00 0.00 0.00 48 1013.3
20260505024026 49 352 5.0 12.0 0.00 0.00 0.00 48 1013.3
20260505023528 49 347 5.0 12.0 0.00 0.00 0.00 47 1013.2
20260505023042 50 325 5.0 15.0 0.00 0.00 0.00 47 1013.1
20260505022526 50 340 6.0 15.0 0.00 0.00 0.00 47 1013.2
20260505022027 50 338 5.0 11.0 0.00 0.00 0.00 47 1013.2
20260505021549 50 333 5.0 11.0 0.00 0.00 0.00 46 1013.0
20260505021026 50 1 5.0 11.0 0.00 0.00 0.00 46 1013.0
20260505020526 50 286 4.0 13.0 0.00 0.00 0.00 46 1012.9
20260505020049 50 347 5.0 15.0 0.00 0.00 0.00 46 1013.0
20260505015527 51 330 5.0 16.0 0.00 0.00 0.00 45 1012.8
20260505015026 51 314 7.0 16.0 0.00 0.00 0.00 45 1012.8
20260505014537 51 308 7.0 14.0 0.00 0.00 0.00 44 1012.7
20260505014026 51 304 6.0 16.0 0.00 0.00 0.00 44 1012.7
20260505013526 51 324 6.0 16.0 0.00 0.00 0.00 44 1012.8
20260505013043 52 314 5.0 12.0 0.00 0.00 0.00 43 1012.8
20260505012526 52 305 6.0 12.0 0.00 0.00 0.00 43 1012.8
20260505012026 52 333 5.0 12.0 0.00 0.00 0.00 43 1012.7
20260505011541 52 319 5.0 12.0 0.00 0.00 0.00 43 1012.7
20260505011026 52 324 5.0 14.0 0.00 0.00 0.00 43 1012.6
20260505010525 52 335 5.0 14.0 0.00 0.00 0.00 43 1012.7
20260505005527 52 359 5.0 11.0 0.00 0.00 0.00 43 1012.5
20260505005031 52 298 5.0 11.0 0.00 0.00 0.00 44 1012.5
20260505004536 52 309 6.0 12.0 0.00 0.00 0.00 43 1012.3
20260505004027 52 330 6.0 12.0 0.00 0.00 0.00 43 1012.4
20260505003527 52 328 6.0 12.0 0.00 0.00 0.00 43 1012.3
20260505003046 52 317 6.0 16.0 0.00 0.00 0.00 43 1012.3
20260505002529 52 319 7.0 16.0 0.00 0.00 0.00 43 1012.2
20260505002026 52 310 5.0 16.0 0.00 0.00 0.00 42 1012.1
20260505001539 53 327 7.0 16.0 0.00 0.00 0.00 42 1012.0
20260505001025 53 300 7.0 16.0 0.00 0.00 0.00 42 1012.0
20260505000528 53 311 7.0 15.0 0.00 0.00 0.00 43 1012.0
20260505000051 53 262 7.0 15.0 0.00 0.00 0.00 43 1011.9
20260504235527 53 328 8.0 15.0 0.00 0.00 0.00 42 1011.9
20260504235025 53 295 7.0 16.0 0.00 0.00 0.00 43 1011.8
20260504234539 53 305 7.0 16.0 0.00 0.00 0.00 43 1011.9
20260504234026 53 286 7.0 16.0 0.00 0.00 0.00 43 1011.8
20260504233526 53 278 6.0 17.0 0.00 0.00 0.00 43 1011.6
20260504233044 53 356 7.0 17.0 0.00 0.00 0.00 43 1011.6
20260504232522 53 280 7.0 14.0 0.00 0.00 0.00 43 1011.7
20260504232022 53 328 7.0 16.0 0.00 0.00 0.00 43 1011.6
20260504231537 53 316 7.0 16.0 0.00 0.00 0.00 43 1011.6
20260504231022 53 293 7.0 15.0 0.00 0.00 0.00 43 1011.6
20260504230523 53 332 6.0 19.0 0.00 0.00 0.00 44 1011.8
20260504230043 53 322 7.0 19.0 0.00 0.00 0.00 43 1011.7
20260504225523 53 330 8.0 18.0 0.00 0.00 0.00 41 1011.7
20260504225024 54 251 8.0 17.0 0.00 0.00 0.00 42 1011.6
20260504224550 55 331 7.0 17.0 0.00 0.00 0.00 41 1011.6
20260504224025 56 349 7.0 19.0 0.00 0.00 0.00 40 1011.7
20260504223523 56 322 9.0 19.0 0.00 0.00 0.00 40 1011.7
20260504223039 55 2 9.0 18.0 0.00 0.00 0.00 40 1011.7
20260504222522 55 314 8.0 16.0 0.00 0.00 0.00 41 1011.7
20260504222023 55 324 7.0 18.0 0.00 0.00 0.00 41 1011.8
20260504221539 55 341 9.0 18.0 0.00 0.00 0.00 41 1011.8
20260504221028 56 276 6.0 20.0 0.00 0.00 0.00 41 1011.8
20260504220525 56 51 9.0 20.0 0.00 0.00 0.00 41 1011.8
20260504220043 57 352 9.0 20.0 0.00 0.00 0.00 40 1011.6
20260504215524 57 343 9.0 19.0 0.00 0.00 0.00 41 1011.6
20260504215022 57 325 8.0 19.0 0.00 0.00 0.00 40 1011.3
20260504214543 56 359 9.0 19.0 0.00 0.00 0.00 41 1011.3
20260504214022 56 359 7.0 19.0 0.00 0.00 0.00 40 1011.6
20260504213522 57 340 6.0 19.0 0.00 0.00 0.00 41 1011.6
20260504213042 56 359 8.0 19.0 0.00 0.00 0.00 40 1011.6
20260504212524 57 311 10.0 21.0 0.00 0.00 0.00 40 1011.6
20260504212023 58 314 10.0 21.0 0.00 0.00 0.00 41 1011.7
20260504211541 58 346 10.0 21.0 0.00 0.00 0.00 41 1011.7
20260504211022 58 323 7.0 16.0 0.00 0.00 0.00 41 1011.6
20260504210522 58 307 8.0 16.0 0.00 0.00 0.00 40 1011.5
20260504210052 59 327 7.0 14.0 0.00 0.00 0.00 40 1011.8
20260504205525 59 316 9.0 19.0 0.00 0.00 0.00 40 1011.6
20260504205029 58 354 9.0 19.0 0.00 0.00 0.00 42 1011.7
20260504204545 58 334 9.0 17.0 0.00 0.00 0.00 41 1011.7
20260504204021 58 343 9.0 17.0 0.00 0.00 0.00 41 1011.8
20260504203521 59 319 8.0 17.0 0.00 0.00 0.00 41 1011.8
20260504203039 59 303 8.0 18.0 0.00 0.00 0.00 41 1011.8
20260504202527 58 285 8.0 19.0 0.00 0.00 0.00 43 1011.8
20260504202027 59 341 8.0 19.0 0.00 0.00 0.00 41 1011.9
20260504201538 58 28 10.0 19.0 0.00 0.00 0.00 40 1011.8
20260504201029 58 339 9.0 18.0 0.00 0.00 0.00 43 1011.6
20260504200530 58 345 7.0 22.0 0.00 0.00 0.00 41 1011.6
20260504200052 58 345 9.0 22.0 0.00 0.00 0.00 41 1011.8
20260504195524 58 294 8.0 14.0 0.00 0.00 0.00 42 1011.7
20260504195027 58 343 6.0 14.0 0.00 0.00 0.00 41 1011.9
20260504194537 56 332 6.0 14.0 0.00 0.00 0.00 43 1011.9
20260504194028 57 304 7.0 16.0 0.00 0.00 0.00 42 1012.0
20260504193528 56 330 8.0 16.0 0.00 0.00 0.00 46 1012.0
20260504193042 56 340 6.0 16.0 0.00 0.00 0.00 44 1012.1
20260504192524 56 312 8.0 16.0 0.00 0.00 0.00 43 1012.1
20260504192030 56 344 6.0 14.0 0.00 0.00 0.00 45 1012.2
20260504191538 57 335 7.0 15.0 0.00 0.00 0.00 43 1012.2
20260504191027 57 343 5.0 15.0 0.00 0.00 0.00 44 1012.3
20260504190527 57 358 7.0 15.0 0.00 0.00 0.00 44 1012.4
20260504190036 57 357 7.0 15.0 0.00 0.00 0.00 46 1012.3
20260504185526 56 2 7.0 16.0 0.00 0.00 0.00 44 1012.5
20260504185027 57 7 7.0 16.0 0.00 0.00 0.00 45 1012.5
20260504184542 57 342 9.0 16.0 0.00 0.00 0.00 43 1012.5
20260504184031 57 347 6.0 14.0 0.00 0.00 0.00 45 1012.5
20260504183526 56 347 6.0 14.0 0.00 0.00 0.00 47 1012.6
20260504183038 55 331 4.0 15.0 0.00 0.00 0.00 48 1012.6
20260504182526 55 347 9.0 18.0 0.00 0.00 0.00 47 1012.7
20260504182024 55 68 6.0 18.0 0.00 0.00 0.00 47 1012.7
20260504181538 55 42 8.0 18.0 0.00 0.00 0.00 47 1012.5
20260504181027 54 60 9.0 18.0 0.00 0.00 0.00 48 1012.7
20260504180524 55 25 8.0 15.0 0.00 0.00 0.00 45 1012.8
20260504180037 56 72 5.0 17.0 0.00 0.00 0.00 47 1012.7
20260504175526 56 32 9.0 17.0 0.00 0.00 0.00 46 1012.8
20260504175026 56 60 9.0 17.0 0.00 0.00 0.00 44 1012.6
20260504174536 57 4 6.0 14.0 0.00 0.00 0.00 46 1012.7
20260504174027 55 323 8.0 14.0 0.00 0.00 0.00 44 1012.7
20260504173530 56 56 3.0 14.0 0.00 0.00 0.00 46 1012.6
20260504173037 56 18 5.0 13.0 0.00 0.00 0.00 45 1012.7
20260504172524 56 307 5.0 11.0 0.00 0.00 0.00 46 1012.7
20260504172027 55 360 5.0 12.0 0.00 0.00 0.00 46 1012.8
20260504171537 55 55 6.0 13.0 0.00 0.00 0.00 47 1012.9
20260504171027 55 3 4.0 13.0 0.00 0.00 0.00 46 1012.8
20260504170526 55 49 6.0 13.0 0.00 0.00 0.00 47 1012.9
20260504151027 50 60 6.0 17.0 0.00 0.00 0.00 53 1013.0
20260504150525 50 20 6.0 17.0 0.00 0.00 0.00 53 1013.1
20260504141028 48 36 7.0 15.0 0.00 0.00 0.00 56 1012.6
20260504140526 48 359 8.0 20.0 0.00 0.00 0.00 56 1012.6
20260504130524 48 25 3.0 9.0 0.00 0.00 0.00 52 1012.2
20260504110526 50 11 3.0 9.0 0.00 0.00 0.00 51 1009.1